Location: Puerto Pe�asco
(31.3170°N, 113.5330°W)
Time: 01:10:17
(UTC-07:00)

Daily predictions for brighter satellites

Satellite Brightness Start Highest point End
(mag) Time Altitude Azimuth Time Altitude Azimuth Time Altitude Azimuth
Cosmos 2369 Rocket 4.1 00:09:50 25° NNE 00:09:50 25° NNE 00:12:02 10° NNE
NOSS 3-1 (C) 4.5 00:11:13 10° NNW 00:17:48 58° NNE 00:17:48 58° NNE
ATLAS 3B CENTAUR R/B 4.4 00:29:45 62° SE 00:29:45 62° SE 00:54:50 10° E
Cosmos 1943 Rocket 4.1 00:56:48 25° NNE 00:56:48 25° NNE 00:59:01 10° NNE
ATLAS 2AS CENTAUR R/B 3.1 01:51:42 10° NNW 01:58:45 70° N 01:58:45 70° N
Cosmos 2227 Rocket 4.4 02:05:05 10° NNE 02:09:09 20° ENE 02:12:25 13° E
Cosmos 2297 Rocket 4.4 02:26:52 10° NNE 02:31:05 21° ENE 02:35:16 10° ESE
ATLAS CENTAUR R/B 2.9 02:45:31 41° ENE 02:45:31 41° ENE 02:49:10 10° NE
Resurs 1-4 Rocket 2.9 02:48:17 10° NNE 02:53:17 43° E 02:53:23 43° ESE
SL-16 R/B 3.4 02:52:25 23° SE 02:55:52 45° ENE 03:01:41 10° N
Cosmos 44 4.5 02:52:18 10° NNW 02:55:22 36° NNW 02:55:22 36° NNW
Cosmos 1898 Rocket 4.5 02:52:19 10° N 02:57:25 44° ENE 02:59:03 34° ESE
Okean O Rocket 4.1 02:56:35 10° ENE 02:58:52 14° E 03:00:11 12° ESE
Cosmos 2034 Rocket 3.8 02:59:27 80° SSE 02:59:46 85° E 03:06:01 10° N
ADEOS 4.0 03:00:05 10° N 03:04:22 53° NNW 03:04:22 53° NNW
Cosmos 841 Rocket 4.3 03:06:41 41° ESE 03:07:15 42° E 03:12:12 10° NNE
Cosmos 1707 4.4 03:03:30 10° N 03:05:46 32° NNE 03:05:46 32° NNE
GPS 2-04 Rocket1 4.1 03:14:47 36° NE 03:14:47 36° NE 03:17:11 10° ENE
UNK 4.4 03:14:59 47° ESE 03:15:47 54° ENE 03:20:21 10° N
Cosmos 1763 Rocket 3.7 03:15:27 58° SE 03:15:53 60° ESE 03:21:01 10° NNE
ARIANE 5 R/B 2.5 03:15:43 10° N 03:20:42 71° WNW 03:20:42 71° WNW
Nadezhda 4 Rocket 4.3 03:15:32 10° N 03:21:40 63° E 03:25:04 27° SSE
Cosmos 1656 3.6 03:24:08 70° WSW 03:24:33 73° WNW 03:30:15 10° NNE
ASTRO E2 3.6 03:28:00 45° E 03:28:00 45° E 03:30:52 10° E
Cosmos-2242 4.3 03:26:14 31° ESE 03:27:19 36° E 03:31:16 10° NNE
SME Rocket 3.7 03:33:14 58° SSW 03:34:15 76° WSW 03:41:14 10° NNW
Meteor 2-5 Rocket 3.9 03:29:33 10° NNW 03:35:14 53° W 03:35:35 52° WSW
Delta 7925 Rocket 4.0 03:37:59 43° SSE 03:37:59 43° SSE 03:41:58 10° ESE
Cosmos 1697 Rocket 2.6 03:36:49 59° SW 03:37:51 77° WNW 03:43:32 10° NNE
Cosmos 2082 3.6 03:35:14 10° NNW 03:40:48 65° WSW 03:42:03 50° SSW
SL-8 R/B 4.3 03:43:48 40° SSE 03:43:48 40° SSE 03:46:55 10° SE
IRS-1D 3.8 03:38:13 10° N 03:42:55 44° WNW 03:43:05 44° W
CZ-2D R/B 2.2 03:38:24 10° N 03:43:45 59° WNW 03:44:44 51° WSW
Cosmos 2298 Rocket 4.1 03:38:49 10° NNW 03:43:57 53° WSW 03:44:02 53° WSW
Cosmos 1980 Rocket 2.3 03:42:57 40° S 03:44:57 71° ESE 03:50:35 10° NNE
PSLV R/B 4.4 03:44:25 10° NNE 03:48:10 50° E 03:49:01 41° SE
Cosmos 1634 Rocket 4.1 03:45:21 28° S 03:48:52 77° E 03:55:09 10° N
Cosmos 2227 Rocket 2.4 03:47:59 10° NNW 03:53:23 46° WSW 03:54:06 44° SW
Cosmos 2322 Rocket 3.8 03:50:19 10° SSE 03:55:00 29° ESE 03:59:46 10° NE
Cosmos 1766 4.1 03:57:00 36° WNW 03:57:00 36° WNW 04:00:11 10° NNW
Milstar 3 Cent rocket 2.6 03:57:08 38° WSW 03:59:20 69° S 04:08:22 10° E
CZ-3 Stage 3 4.2 03:09:01 10° W 04:02:41 87° S 04:09:31 10° E
IRS-1C Rocket 4.0 03:59:00 10° NNE 04:04:16 87° WNW 04:07:05 29° SSW
Cosmos 1758 3.2 04:05:42 49° SSW 04:06:40 71° W 04:10:41 10° N
ADEOS II 4.1 04:03:39 10° NE 04:07:51 24° E 04:12:03 10° SSE
Cosmos 1092 Rocket 3.9 04:02:31 10° N 04:08:46 71° W 04:14:20 14° S
GEOS 3 Rocket 3.6 04:04:35 10° SSE 04:09:42 55° WSW 04:14:48 10° NW
UNKNOWN OBJECT B 3.7 04:09:25 10° NNW 04:12:51 29° WNW 04:12:58 29° WNW
Cosmos 1953 2.4 04:12:28 43° SW 04:13:24 55° W 04:17:23 10° N
Cosmos 2297 Rocket 2.5 04:09:57 10° NW 04:15:14 42° WSW 04:18:51 19° SSW
Cosmos 332 Rocket 4.1 04:12:33 20° S 04:15:49 64° ESE 04:20:35 10° NNE
OAO 3 Rocket 3.6 04:15:56 35° SW 04:16:34 36° SSW 04:20:52 10° SE
CZ-2D R/B 4.1 04:13:19 10° N 04:17:25 41° WNW 04:18:43 32° WSW
Cosmos 2360 4.1 04:15:17 25° SSW 04:18:47 84° WNW 04:24:31 10° NNE
ISS -0.1 04:17:00 10° N 04:18:56 15° NE 04:20:52 10° ENE
EO 1 Del DPAF 4.5 04:20:55 25° W 04:20:55 25° W 04:23:36 10° NW
Cosmos 990 Rocket 4.1 04:17:06 10° NNW 04:22:12 53° WSW 04:27:17 10° S
ATLAS CENTAUR R/B 3.6 04:21:52 15° WNW 04:23:39 18° NW 04:27:00 10° N
Centaur D-1A AC-31 3.8 04:05:04 21° WSW 04:25:55 55° S 04:31:59 10° E
SL-16 R/B 2.8 04:20:39 10° S 04:26:04 54° ESE 04:31:34 10° NNE
Cosmos 783 Rocket 4.5 04:22:55 19° SSW 04:26:47 88° WNW 04:32:07 10° NNE
Cosmos 1378 4.2 04:25:38 10° NNW 04:28:48 26° W 04:28:58 26° W
Cosmos 1805 4.0 04:30:34 28° WSW 04:31:44 34° W 04:35:19 10° NNW
Resurs 1-4 Rocket 3.7 04:29:13 10° NNW 04:32:43 18° WNW 04:34:27 16° W
Okean O Rocket 2.2 04:31:15 10° N 04:35:19 38° WNW 04:37:39 22° SW
PAYLOAD B 4.4 04:31:22 10° N 04:36:51 56° WNW 04:41:25 15° SSW
Cosmos 371 Rocket 3.5 04:32:22 11° S 04:37:03 70° ESE 04:41:50 10° NNE
Cosmos 1500 Rocket 3.6 04:33:14 10° N 04:37:39 82° E 04:41:59 10° S
SL-16 R/B 3.6 04:37:31 19° WSW 04:39:35 22° W 04:44:16 10° NW
Cosmos 1743 Rocket 3.6 04:37:25 10° NNW 04:41:40 56° W 04:45:55 10° S
Cosmos 1441 Rocket 4.4 04:38:39 10° NW 04:41:54 24° W 04:43:16 20° WSW
Aureole 1 Rocket 3.8 04:40:21 13° SSW 04:45:01 78° WNW 04:51:52 10° NNE
Cosmos 1125 Rocket 3.4 04:40:23 10° NNW 04:45:36 85° WSW 04:50:47 10° SSE
Cosmos 2279 Rocket 4.1 04:40:24 10° SSW 04:46:34 61° W 04:52:45 10° N
Cosmos 1733 3.1 04:44:02 10° S 04:47:50 84° W 04:51:38 10° N
CZ-4B R/B 3.7 04:44:39 10° N 04:49:52 43° WNW 04:54:35 12° SW
Aurora 2 Rocket 3.0 04:50:47 18° SW 04:52:20 27° S 04:55:25 10° ESE
Cosmos 2151 3.9 04:48:21 10° N 04:52:34 52° E 04:56:45 10° SSE
GPS 2-04 Rocket1 3.6 04:49:49 10° WNW 04:53:32 41° N 04:57:02 10° ENE
Cosmos 2227 4.2 04:53:10 10° NNW 04:58:56 80° WSW 05:04:40 10° SSE
ARGOS Delta rocket 4.5 04:54:18 10° N 04:59:04 40° WNW 05:03:34 10° SW
Cosmos 1655 Rocket 4.2 04:54:06 10° NNW 05:00:16 52° W 05:06:25 10° SSW
CZ-3 R/B 3.0 04:37:40 14° WSW 05:01:10 65° S 05:07:29 10° E
Feng Yun 1-1 Rocket 4.2 04:58:31 10° N 05:04:08 79° WNW 05:09:35 10° SSW
CSL-04 DEB 4.4 05:01:41 10° N 05:05:33 63° WNW 05:09:26 10° SSW
Cosmos 2221 2.6 05:01:23 10° S 05:05:38 83° E 05:09:55 10° N
Cosmos 1437 4.0 05:03:45 10° NW 05:06:28 23° W 05:09:10 10° SSW
ASTRO E2 2.8 05:03:26 10° W 05:07:24 56° SSW 05:11:22 10° ESE
CZ-4B R/B 4.2 05:05:25 10° NNW 05:08:23 21° WNW 05:11:16 10° WSW
Thor Agena Rocket 3.8 05:03:38 10° S 05:08:24 43° W 05:13:11 10° NNW
NOSS 3-4 (A) 4.4 05:06:42 10° NW 05:13:04 35° WSW 05:19:43 10° S
NOSS 3-4 (C) 4.4 05:06:48 10° NW 05:13:13 35° WSW 05:19:54 10° S
Okean-O 3.1 05:10:54 10° N 05:15:06 44° WNW 05:19:18 10° SW
Cosmos 2266 Rocket 4.2 05:13:31 10° N 05:19:41 79° E 05:25:55 10° S
